Location: Bailleul
(50.3375°N, 2.8513°E)
Time: 08:36:03
(UTC+00:00)

Cosmos 2058 Rocket - Pass Details

Date: 16 June 2021
Orbit: 609 x 640 km, 82.5° (Epoch: 27 July)

Event Time Altitude Azimuth Distance (km) Brightness Sun altitude
Rises 23:16:40 0° 348° (NNW) 2,939 8.4 -15.9°
Reaches altitude 10° 23:18:56 10° 346° (NNW) 2,021 7.0 -16.0°
Maximum altitude 23:23:24 72° 263° (W) 661 3.1 -16.1°
Enters shadow 23:25:34 29° 185° (S) 1,140 3.8 -16.1°
